Wind_Speed
13 14 14 15 16 18 18 20 21 22 23 27 30 29 30 31 23 7 8 8 7 11 14 13 7 8 10 3 4 4 3 1 5 4 6 15 4 7 2 11 4 4 6 5 24
14 15 16 17 16 18 19 19 19 20 23 27 30 30 31 31 23 4 8 7 10 13 13 12 13 14 4 2 3 4 4 7 5 4 5 9 4 5 2 3 3 4 6 11 28
15 16 17 18 18 18 18 19 17 20 24 28 31 31 30 30 15 1 6 6 10 15 12 12 12 12 5 5 3 0 4 3 5 6 6 6 5 3 2 3 12 14 15 19 32
16 17 18 19 19 20 19 19 18 20 24 27 32 33 31 25 6 8 7 9 11 13 9 12 12 10 3 5 6 5 8 5 8 6 10 6 9 6 7 10 11 15 17 23 34
17 17 19 20 21 21 20 20 20 22 24 29 32 31 31 22 16 10 9 10 12 4 7 11 8 4 3 4 9 4 4 18 19 24 16 12 12 9 13 14 12 13 21 27 33
17 18 20 20 21 21 21 22 23 22 25 28 29 29 27 10 8 7 12 7 5 4 6 5 5 7 4 3 1 7 14 21 19 28 16 7 10 5 8 11 15 18 24 29 33
17 18 19 22 21 22 23 25 24 27 27 26 29 28 25 26 8 9 3 2 7 6 7 8 7 7 6 7 5 11 7 9 8 8 5 4 8 7 13 14 19 24 28 31 33
18 18 19 20 22 24 25 26 29 28 26 28 26 25 17 20 10 5 1 5 7 7 8 9 8 9 4 6 8 5 3 5 5 6 4 2 8 8 5 11 19 24 29 32 34
18 18 18 20 22 23 25 28 29 28 27 24 18 13 15 5 5 5 4 19 18 12 10 12 12 4 2 2 4 4 3 2 9 1 2 1 7 4 7 6 18 25 31 33 34
18 18 18 21 22 22 26 29 30 18 16 13 7 8 9 3 7 9 11 23 14 15 13 3 2 2 2 3 4 3 4 3 6 6 7 5 5 9 15 12 11 14 24 31 34
19 20 20 21 21 21 25 31 12 7 14 16 28 31 35 35 35 37 33 18 12 4 2 2 1 7 11 8 5 6 4 7 6 7 3 6 5 11 18 15 18 21 21 29 38
22 21 21 20 18 19 18 11 9 9 19 30 33 30 29 28 13 18 4 7 4 3 2 3 8 9 5 5 8 9 9 12 7 5 4 7 9 12 9 10 20 18 28 31 28
26 23 20 20 18 17 14 11 10 12 7 19 6 8 4 2 5 5 5 4 3 2 4 6 6 4 6 8 6 6 7 5 7 3 5 6 10 4 7 12 20 20 24 31 32
28 25 22 19 17 14 13 8 8 13 4 7 4 1 2 1 4 4 7 2 0 3 3 5 7 5 2 6 4 4 5 6 5 2 4 3 14 6 7 13 8 22 21 25 26
32 25 23 20 12 11 8 3 6 5 6 3 2 3 2 3 8 1 7 7 4 4 3 7 4 2 3 4 1 7 3 5 2 3 3 2 4 1 3 7 8 10 18 22 24
34 29 28 26 24 17 12 3 2 5 7 5 1 1 1 2 2 3 4 6 2 2 3 8 3 3 7 5 6 5 3 2 3 2 7 7 9 4 1 4 6 9 14 13 9
38 37 35 32 30 21 12 5 3 4 3 3 1 2 3 2 2 3 3 2 3 3 2 5 5 5 4 3 3 3 4 3 4 1 7 2 2 8 1 4 4 6 7 8 6
43 44 39 34 27 23 18 3 8 6 6 2 3 3 2 4 2 4 2 3 4 4 1 4 6 3 3 2 3 3 6 5 6 3 4 3 5 4 4 3 5 10 8 6 3
48 45 38 32 27 26 24 4 8 7 3 1 2 2 2 2 3 6 3 3 6 7 2 3 5 2 2 2 1 2 3 2 2 1 3 3 4 3 3 5 8 11 12 10 6
52 41 37 31 27 29 9 9 6 3 2 1 5 3 1 2 3 4 2 3 2 1 2 3 6 5 2 1 2 3 2 3 2 3 6 4 5 4 2 2 4 4 7 11 7
44 17 25 28 28 22 8 8 7 5 4 2 2 3 4 2 3 3 3 1 3 4 3 2 3 4 3 2 5 3 1 0 2 4 5 11 8 3 2 5 4 1 2 11 11
30 5 37 35 8 5 6 7 11 5 5 0 3 3 4 5 4 3 6 5 5 3 3 3 3 5 8 6 7 6 6 6 4 9 3 2 7 4 4 1 6 9 15 13 25
23 7 31 40 8 5 5 10 5 5 4 4 5 2 2 3 3 6 4 1 7 3 3 4 3 6 9 3 5 3 3 3 2 2 3 1 6 4 16 21 26 13 12 30 21
20 4 8 22 9 10 11 10 8 15 8 6 4 4 6 6 5 3 2 2 7 1 2 3 4 6 12 12 5 17 19 12 3 4 12 16 19 16 12 14 20 14 19 17 7
18 6 11 9 13 14 14 11 10 7 10 9 7 13 8 7 6 9 5 2 3 4 4 6 13 10 17 17 17 20 19 5 10 15 12 17 20 20 14 8 8 10 12 9 9
16 9 8 13 22 12 13 9 9 13 8 9 9 1 5 6 6 4 5 3 5 4 5 4 10 4 21 14 15 19 17 8 12 15 15 18 21 20 14 6 8 7 7 6 8
13 22 20 11 8 9 9 10 14 9 6 11 8 5 6 6 7 7 10 8 7 3 6 5 3 2 19 6 9 12 12 13 12 14 11 13 15 8 7 8 12 11 10 9 10
Wind_Direction
299 305 312 315 322 325 329 329 332 337 339 337 337 339 341 344 354 19 24 14 1 337 334 334 334 322 319 224 215 180 74 223 248 196 252 312 349 15 69 143 197 208 217 252 189
295 301 307 310 317 319 322 324 328 334 335 334 336 339 340 341 347 44 12 359 339 335 330 337 345 344 334 202 212 128 141 225 222 211 282 296 287 305 118 166 242 261 235 225 183
289 297 303 305 309 312 317 319 326 331 334 333 333 333 337 339 339 21 338 343 339 343 340 338 339 350 316 325 350 281 197 211 290 264 353 275 283 242 208 227 228 216 202 183 182
286 293 298 302 305 309 316 317 321 326 329 330 327 327 330 337 328 294 290 315 334 336 342 342 334 337 332 346 331 330 246 254 306 313 325 294 298 280 230 249 264 242 224 191 189
284 291 296 300 305 310 313 315 318 322 325 326 322 323 328 320 309 289 286 320 326 331 0 358 14 2 320 317 333 208 324 316 298 298 284 275 248 260 270 269 237 230 198 199 198
283 290 294 298 304 309 311 313 318 323 321 320 316 317 319 301 323 284 297 296 307 322 349 3 352 336 278 295 151 313 306 299 307 306 284 218 269 189 254 227 221 210 208 206 206
281 287 293 300 306 309 310 312 314 319 317 313 309 308 302 296 290 305 321 352 0 316 324 351 342 343 332 321 333 296 307 327 328 312 309 230 298 229 264 225 209 213 214 210 210
278 284 292 299 307 310 310 313 315 319 313 308 305 301 279 305 277 268 293 334 321 293 299 319 316 304 273 307 329 336 18 338 304 343 315 154 279 347 41 199 222 223 221 220 219
274 280 289 298 305 309 313 316 318 317 309 305 304 294 278 320 247 217 302 333 328 321 312 293 288 269 253 53 350 356 257 271 318 177 357 106 287 258 14 191 244 246 238 229 227
271 278 289 296 303 306 317 319 321 324 304 311 296 311 263 286 247 242 279 318 315 311 300 258 246 109 46 92 241 240 277 294 255 284 8 318 264 301 317 320 288 253 245 239 236
267 277 285 293 300 310 320 325 345 322 297 282 274 273 276 281 279 279 285 288 281 240 210 277 203 217 215 200 229 261 263 261 261 267 297 260 268 285 295 299 282 276 262 248 248
267 272 281 288 292 303 317 327 337 319 302 296 290 275 277 279 284 299 231 210 172 198 166 356 243 229 222 221 224 244 255 270 270 254 203 253 250 248 257 253 266 287 298 294 284
261 265 275 285 285 290 296 293 316 329 282 304 282 273 336 270 227 290 196 174 187 211 211 206 248 16 199 264 230 242 222 233 238 308 300 312 280 222 263 263 274 291 300 297 292
256 262 262 273 276 275 269 282 321 327 359 280 277 263 180 244 271 273 210 205 205 237 222 236 273 290 258 236 199 256 222 234 252 322 277 32 293 194 259 283 312 330 337 327 315
252 255 249 250 241 231 250 260 323 339 335 263 236 167 180 199 314 194 191 182 226 233 84 248 292 316 326 252 243 241 255 260 279 274 18 293 287 50 305 309 318 310 338 337 332
248 245 235 238 236 230 220 216 309 47 250 307 184 222 87 231 270 302 216 237 265 261 210 241 264 237 215 242 215 246 226 22 62 119 270 220 198 296 311 268 288 319 343 4 20
244 240 236 239 226 212 199 165 44 182 325 277 305 186 210 233 252 213 207 225 215 324 301 330 270 278 209 246 341 132 98 301 304 217 238 173 183 246 347 5 323 313 19 38 67
241 235 224 218 212 197 181 86 221 213 251 336 8 321 238 20 284 324 266 268 262 196 166 226 311 220 20 145 211 248 170 181 251 225 250 321 260 265 90 352 34 64 68 73 91
231 214 207 197 191 176 158 192 204 198 251 66 315 208 240 42 36 3 353 238 26 23 223 289 255 323 132 172 105 322 236 187 270 262 311 210 290 345 65 10 32 61 76 87 93
212 196 195 182 175 170 167 220 230 214 59 28 174 59 216 336 54 31 276 6 137 106 193 315 297 246 293 185 10 175 221 344 360 269 245 266 266 224 269 19 354 34 87 88 98
193 159 183 166 167 165 205 194 220 148 168 208 185 185 198 197 171 196 279 286 32 357 12 317 159 278 360 195 197 339 159 319 230 191 241 270 268 182 179 223 215 202 330 333 276
173 154 166 171 135 192 201 184 211 153 185 159 349 261 210 181 230 223 219 232 58 37 30 334 273 264 217 199 191 203 213 186 204 263 238 169 261 314 250 278 273 268 267 298 291
166 134 168 171 195 191 190 205 184 229 211 192 233 252 336 200 258 214 234 302 98 70 78 13 344 327 307 36 13 318 3 84 16 237 249 268 270 286 310 301 285 274 272 288 292
157 139 164 182 210 180 176 187 182 198 202 217 254 262 270 261 220 261 215 334 320 33 147 164 209 202 262 270 278 283 276 279 209 238 268 260 274 276 263 265 273 270 229 259 276
176 178 176 180 196 181 165 172 179 183 222 226 252 239 229 251 234 238 243 299 266 262 205 168 260 250 264 273 276 270 272 251 244 252 252 269 269 270 267 255 253 211 201 209 221
148 150 152 157 159 142 163 175 162 197 191 204 222 311 224 216 209 270 292 213 217 238 200 192 261 266 277 276 268 272 275 269 265 264 259 254 261 264 267 209 191 205 213 235 279
142 140 133 143 145 149 171 151 188 196 232 235 266 296 277 284 297 271 253 241 242 207 212 200 210 207 269 277 297 269 246 250 259 263 258 269 265 265 227 210 208 211 220 247 277
Height
1550 1550 1549 1547 1545 1543 1541 1538 1536 1532 1530 1527 1522 1517 1512 1506 1503 1501 1500 1501 1499 1498 1495 1493 1492 1490 1488 1488 1489 1489 1502 1510 1498 1495 1483 1473 1472 1470 1470 1471 1472 1471 1471 1472 1472
1549 1548 1548 1546 1543 1542 1540 1538 1535 1531 1529 1525 1521 1516 1512 1507 1502 1501 1501 1500 1498 1496 1494 1492 1490 1488 1487 1487 1487 1487 1499 1493 1483 1480 1478 1475 1474 1471 1470 1471 1471 1471 1470 1470 1472
1547 1547 1546 1544 1542 1540 1538 1536 1533 1530 1528 1524 1520 1515 1511 1507 1501 1500 1499 1498 1496 1495 1493 1492 1491 1490 1489 1488 1487 1487 1492 1483 1479 1477 1475 1475 1472 1470 1469 1471 1465 1466 1466 1469 1472
1545 1544 1544 1542 1540 1538 1536 1535 1532 1529 1526 1523 1518 1514 1510 1508 1511 1498 1497 1496 1496 1494 1493 1492 1491 1490 1490 1491 1488 1491 1481 1481 1479 1478 1478 1476 1472 1469 1467 1465 1463 1463 1464 1466 1469
1543 1542 1541 1540 1539 1537 1535 1533 1530 1527 1525 1521 1516 1512 1508 1506 1500 1498 1497 1496 1494 1492 1492 1491 1490 1489 1491 1491 1488 1486 1482 1480 1477 1475 1473 1472 1469 1468 1464 1463 1461 1460 1461 1462 1463
1540 1540 1539 1537 1537 1534 1532 1530 1528 1526 1523 1519 1514 1512 1509 1506 1498 1497 1495 1495 1493 1491 1491 1490 1490 1489 1487 1487 1489 1484 1481 1476 1471 1467 1467 1467 1463 1463 1459 1460 1459 1458 1456 1458 1459
1538 1537 1536 1536 1535 1533 1530 1527 1525 1522 1519 1515 1511 1508 1505 1498 1495 1494 1494 1493 1492 1491 1490 1490 1490 1490 1488 1487 1485 1483 1483 1474 1468 1467 1466 1463 1462 1460 1456 1456 1456 1456 1455 1455 1457
1535 1534 1534 1533 1532 1530 1527 1524 1521 1518 1515 1510 1508 1503 1497 1493 1492 1492 1491 1492 1491 1490 1490 1489 1489 1488 1488 1486 1485 1486 1484 1489 1470 1468 1466 1466 1473 1456 1457 1458 1458 1455 1454 1454 1455
1532 1532 1531 1531 1530 1527 1525 1521 1518 1514 1510 1506 1504 1501 1491 1489 1490 1490 1490 1491 1490 1489 1489 1488 1488 1487 1487 1490 1495 1491 1497 1489 1480 1468 1467 1466 1469 1458 1458 1458 1457 1455 1453 1450 1451
1529 1530 1529 1529 1527 1525 1523 1518 1515 1511 1507 1505 1501 1502 1490 1489 1488 1488 1489 1489 1489 1487 1487 1486 1485 1488 1491 1497 1506 1495 1493 1490 1492 1473 1468 1468 1465 1458 1454 1453 1453 1450 1449 1450 1448
1525 1527 1527 1526 1525 1524 1522 1516 1515 1511 1506 1506 1500 1495 1489 1487 1488 1484 1486 1485 1486 1486 1489 1486 1490 1492 1486 1486 1485 1487 1489 1491 1483 1472 1471 1469 1466 1460 1452 1450 1446 1444 1444 1444 1442
1522 1523 1524 1524 1523 1524 1522 1520 1520 1521 1501 1494 1488 1486 1482 1482 1479 1478 1479 1483 1482 1486 1485 1490 1489 1478 1479 1482 1484 1485 1488 1485 1477 1470 1471 1469 1467 1460 1453 1447 1443 1441 1438 1436 1435
1518 1520 1521 1521 1521 1523 1522 1521 1520 1518 1513 1485 1482 1481 1480 1480 1479 1477 1480 1479 1481 1484 1486 1490 1479 1475 1480 1479 1483 1482 1484 1480 1478 1470 1468 1467 1455 1455 1449 1445 1442 1441 1437 1434 1432
1513 1515 1518 1519 1522 1520 1521 1520 1520 1518 1519 1493 1482 1479 1480 1480 1480 1477 1478 1480 1479 1482 1482 1486 1476 1477 1475 1478 1476 1481 1470 1471 1473 1477 1487 1472 1470 1459 1451 1443 1437 1433 1434 1432 1428
1508 1510 1512 1515 1517 1518 1520 1520 1520 1519 1533 1485 1481 1480 1478 1481 1481 1477 1479 1478 1480 1479 1480 1481 1475 1474 1475 1474 1469 1475 1467 1468 1469 1476 1481 1479 1487 1455 1449 1450 1445 1440 1436 1432 1427
1501 1503 1505 1507 1512 1515 1517 1519 1521 1531 1526 1487 1480 1480 1480 1479 1479 1478 1479 1479 1477 1478 1478 1476 1470 1471 1469 1466 1466 1463 1467 1471 1479 1483 1489 1474 1478 1463 1456 1453 1445 1440 1436 1432 1426
1493 1495 1496 1500 1502 1509 1515 1519 1529 1529 1493 1485 1482 1480 1480 1480 1479 1477 1479 1481 1482 1483 1484 1479 1474 1467 1465 1467 1465 1465 1475 1492 1491 1489 1482 1465 1475 1457 1448 1447 1447 1442 1438 1435 1431
1484 1485 1485 1490 1498 1501 1511 1521 1525 1499 1493 1482 1482 1480 1482 1479 1478 1479 1478 1482 1475 1478 1485 1484 1484 1466 1465 1468 1470 1469 1475 1492 1487 1489 1481 1465 1470 1457 1452 1450 1447 1443 1441 1440 1437
1473 1472 1476 1484 1491 1498 1504 1519 1502 1495 1485 1486 1481 1482 1481 1481 1482 1481 1481 1481 1482 1481 1484 1482 1478 1464 1463 1464 1467 1470 1477 1471 1478 1479 1484 1470 1459 1453 1454 1452 1448 1445 1443 1441 1441
1460 1465 1468 1479 1487 1494 1500 1498 1490 1484 1485 1484 1483 1484 1487 1486 1485 1487 1483 1479 1481 1481 1479 1480 1483 1466 1464 1464 1466 1467 1469 1481 1483 1484 1484 1469 1463 1460 1454 1455 1453 1450 1446 1442 1443
1456 1462 1465 1474 1482 1489 1488 1486 1480 1482 1486 1485 1483 1482 1482 1483 1485 1486 1482 1479 1479 1479 1477 1477 1481 1475 1469 1468 1470 1471 1472 1474 1475 1478 1474 1470 1463 1453 1455 1454 1454 1453 1452 1450 1446
1451 1460 1460 1468 1479 1480 1478 1480 1477 1478 1484 1483 1484 1482 1481 1481 1482 1482 1481 1479 1478 1480 1484 1482 1482 1483 1472 1465 1463 1465 1466 1469 1481 1470 1475 1473 1468 1449 1453 1453 1452 1450 1449 1448 1451
1447 1455 1455 1457 1467 1471 1475 1473 1475 1477 1479 1482 1483 1481 1480 1481 1484 1479 1479 1476 1478 1481 1484 1483 1489 1491 1470 1469 1467 1467 1466 1468 1471 1472 1472 1484 1469 1450 1449 1449 1445 1442 1443 1443 1440
1440 1453 1453 1455 1454 1459 1464 1467 1474 1476 1478 1481 1480 1480 1484 1483 1479 1478 1478 1477 1478 1480 1480 1481 1487 1490 1487 1478 1478 1474 1466 1467 1471 1475 1469 1467 1463 1452 1450 1446 1439 1436 1434 1436 1434
1420 1429 1428 1439 1446 1450 1454 1464 1468 1472 1475 1477 1479 1478 1479 1483 1478 1476 1475 1475 1478 1478 1477 1479 1479 1482 1471 1470 1469 1465 1460 1466 1467 1460 1464 1455 1451 1443 1439 1436 1433 1432 1432 1430 1428
1405 1414 1422 1428 1437 1444 1449 1455 1461 1466 1470 1470 1473 1472 1477 1480 1478 1478 1476 1477 1476 1476 1477 1475 1474 1476 1467 1468 1464 1460 1455 1461 1458 1455 1449 1446 1441 1434 1432 1430 1431 1431 1433 1431 1429
1398 1403 1409 1427 1431 1438 1442 1449 1455 1462 1463 1465 1469 1471 1474 1475 1476 1473 1474 1473 1471 1474 1475 1474 1476 1479 1466 1464 1464 1461 1454 1450 1446 1441 1440 1440 1431 1428 1428 1426 1426 1429 1429 1428 1425